Jackson Hawkins Field, MS

3:22 PM CDT on April 30, 2017 (GMT -0500)
Hawkins

Weather History for KHKS - November, 2012

Change the Weather History Date:

Tuesday, November 20, 2012

  Actual Average (KJAN) Record (KJAN)
Temperature  
Mean Temperature 58 °F -  
Max Temperature 68 °F 65 °F 81 °F (1933)
Min Temperature 48 °F 42 °F 21 °F (1914)
Degree Days  
Heating Degree Days 7    
Growing Degree Days 8 (Base 50)    
Moisture  
Dew Point 46 °F    
Average Humidity 71    
Maximum Humidity 90    
Minimum Humidity 39    
Precipitation  
Precipitation 0.00 in - - ()
Sea Level Pressure  
Sea Level Pressure 30.17 in    
Wind  
Wind Speed 1 mph (WNW)    
Max Wind Speed 6 mph    
Max Gust Speed -    
Visibility 9 miles    
Events      
Averages and records for this station are not official NWS values.
T = Trace of Precipitation, MM = Missing Value Source: NWS Daily Summary

Daily Weather History Graph

Daily Weather History Graph

Search for Another Location

Airport or City:

Trip Planner

Search our weather history database for the weather conditions in past years. The results will help you decide how hot, cold, wet, or windy it might be!

Date:

Astronomy

Nov. 20, 2012 Rise Set
Actual Time 6:35 AM CST 4:57 PM CST
Civil Twilight 6:08 AM CST 5:24 PM CST
Nautical Twilight 5:38 AM CST 5:54 PM CST
Astronomical Twilight 5:09 AM CST 6:23 PM CST
Moon 12:21 PM CST (11/20) No Moon Set
Length of Visible Light 11h 15m
Length of Day
10h 22m
First Quarter, 51% of the Moon is Illuminated
Nov 20
First Quarter
Nov 28
Full
Dec 6
Last Quarter
Dec 13
New
Dec 19
First Quarter

Hourly Weather History & Observations

Time (CST) Temp. Dew Point Humidity Pressure Visibility Wind Dir Wind Speed Gust Speed Precip Events Conditions
12:53 AM 52.0 °F 46.0 °F 80% 30.18 in 9.0 mi Calm Calm - N/A   Scattered Clouds
2:53 AM 50.0 °F 46.0 °F 86% 30.17 in 9.0 mi Calm Calm - N/A   Clear
3:53 AM 51.1 °F 46.0 °F 83% 30.17 in 9.0 mi Calm Calm - N/A   Mostly Cloudy
4:53 AM 50.0 °F 46.0 °F 86% 30.18 in 9.0 mi Calm Calm - N/A   Scattered Clouds
5:53 AM 48.9 °F 46.0 °F 90% 30.19 in 9.0 mi Calm Calm - N/A   Mostly Cloudy
6:53 AM 50.0 °F 46.0 °F 86% 30.20 in 8.0 mi Calm Calm - N/A   Mostly Cloudy
7:53 AM 53.1 °F 48.0 °F 83% 30.21 in 7.0 mi Calm Calm - N/A   Overcast
8:53 AM 55.9 °F 48.0 °F 75% 30.22 in 9.0 mi Calm Calm - N/A   Overcast
9:53 AM 57.0 °F 48.0 °F 72% 30.22 in 9.0 mi Calm Calm - N/A   Overcast
10:53 AM 62.1 °F 45.0 °F 53% 30.21 in 10.0 mi WNW 4.6 mph - N/A   Overcast
11:53 AM 64.0 °F 45.0 °F 50% 30.18 in 10.0 mi West 4.6 mph - N/A   Overcast
12:53 PM 64.9 °F 43.0 °F 45% 30.16 in 10.0 mi NW 4.6 mph - N/A   Mostly Cloudy
1:53 PM 68.0 °F 42.1 °F 39% 30.14 in 10.0 mi NW 5.8 mph - N/A   Mostly Cloudy
2:53 PM 66.9 °F 43.0 °F 42% 30.13 in 10.0 mi NW 3.5 mph - N/A   Overcast
3:53 PM 66.9 °F 43.0 °F 42% 30.12 in 10.0 mi Calm Calm - N/A   Clear
4:53 PM 62.1 °F 46.0 °F 56% 30.12 in 10.0 mi Calm Calm - N/A   Clear
5:53 PM 57.9 °F 46.9 °F 67% 30.13 in 10.0 mi Calm Calm - N/A   Clear
6:53 PM 57.0 °F 46.9 °F 69% 30.14 in 10.0 mi Calm Calm - N/A   Clear
7:53 PM 54.0 °F 46.9 °F 77% 30.16 in 10.0 mi Calm Calm - N/A   Clear
8:53 PM 52.0 °F 46.9 °F 83% 30.16 in 10.0 mi Calm Calm - N/A   Clear
9:53 PM 50.0 °F 46.0 °F 86% 30.17 in 9.0 mi Calm Calm - N/A   Clear
10:53 PM 48.9 °F 46.0 °F 90% 30.17 in 8.0 mi Calm Calm - N/A   Clear
11:53 PM 48.0 °F 45.0 °F 89% 30.15 in 7.0 mi Calm Calm - N/A   Clear